Regional Weather Roundup
Issued by NWS

Home | Current Version | Previous Version | Graphics & Text | Print | Product List | Glossary On
Versions: 1 2 3 4 5 6 7 8 9 10 11 12 13 14 15 16 17 18 19 20 21 22 23 24 25 26 27 28 29 30 31 32 33 34 35 36 37 38 39 40 41 42 43 44 45 46 47 48 49 50
000
ASUS43 KIND 241509
RWRIN

WEATHER ROUNDUP FOR INDIANA
NATIONAL WEATHER SERVICE INDIANAPOLIS IN
1100 AM EDT THU JUL 24 2014

NOTE: "FAIR" INDICATES FEW OR NO CLOUDS BELOW 12,000 FEET WITH NO
SIGNIFICANT WEATHER AND/OR OBSTRUCTIONS TO VISIBILITY.

* - STATION DOES NOT REPORT WEATHER SUCH AS PRECIPITATION OR FOG.

+ - STATION NOT QUALITY CONTROLLED BY THE NATIONAL WEATHER SERVICE.
    USE DATA WITH CAUTION...ESPECIALLY DEWPOINT AND RELATIVE
    HUMIDITY OBSERVATIONS.

INZ001>003-010>013-019-020-241600-
NORTHWEST INDIANA

CITY           SKY/WX    TMP DP  RH WIND       PRES   REMARKS
GARY /AIRPORT/ MOSUNNY   68  61  77 NE9       30.17S
KNOX *+        SUNNY     67  54  62 NE7       30.15S
LA PORTE +     SUNNY     68  51  55 NE5       30.16F
MICHIGAN CITY+ MOSUNNY   68  54  60 N6        30.16F
MONTICELLO +   PTSUNNY   67  60  79 NE7       30.13F
RENSSELAER +   MOSUNNY   68  61  77 NE7       30.14F
VALPARAISO     SUNNY     70  53  54 NE8       30.16S

$$

LMZ046-743>745-241600-
SOUTHERN LAKE MICHIGAN

STATION/POSITION TIME  TEMP WIND        PRES
                       AIR  DIR/SP/G
                 (UTC) (F)  (DEG/KT/KT) (MB)
MICHIGAN CITY    1500   65  360/  9/ 11   N/A

$$

INZ004-005-014>016-021>024-241600-
NORTH CENTRAL INDIANA

CITY           SKY/WX    TMP DP  RH WIND       PRES   REMARKS
ELKHART        MOSUNNY   66  52  59 N8        30.16S
GOSHEN         PTSUNNY   69  55  60 NE12      30.15S
LOGANSPORT +   MOSUNNY   68  54  60 NE5       30.14S
PERU/GRISSOM   SUNNY     69  58  68 E10       30.13S
ROCHESTER +    MOSUNNY   70  54  56 NE8       30.15S
SOUTH BEND     MOSUNNY   69  54  58 NE8       30.16S
WARSAW +       SUNNY     68  55  64 NE8       30.14F

$$

INZ006>009-017-018-025>027-241600-
NORTHEAST INDIANA

CITY           SKY/WX    TMP DP  RH WIND       PRES   REMARKS
ANGOLA *+      SUNNY     70  61  73 VRB7      30.14S
AUBURN +       SUNNY     72  46  40 N9        30.14F
FORT WAYNE     MOSUNNY   69  50  50 NE9G18    30.13S
HUNTINGTON +   SUNNY     68  51  54 E7        30.13S

$$

INZ028-029-035-036-043>045-051>053-241600-
WEST CENTRAL INDIANA

CITY           SKY/WX    TMP DP  RH WIND       PRES   REMARKS
GREENCASTLE +  PTSUNNY   68  59  73 NE7       30.12S
LAFAYETTE      PTSUNNY   67  59  75 N3        30.13S
TERRE HAUTE    SUNNY     70  59  68 NE5       30.11F

$$

INZ030>032-037>040-046>048-054>057-064-065-241600-
CENTRAL INDIANA

CITY           SKY/WX    TMP DP  RH WIND       PRES   REMARKS
CP ATTERBURY + SUNNY     70  57  64 N6        30.11R
COLUMBUS       SUNNY     68  57  68 N12       30.10S
INDIANAPOLIS   MOSUNNY   68  57  68 NE12      30.10S
-EAGLE CREEK   MOSUNNY   69  57  65 VRB6      30.11S
KOKOMO *+      SUNNY     68  54  60 NE12      30.13S
MARION +       SUNNY     67  52  58 NE9       30.14R
MT COMFORT *+  MOSUNNY   70  63  78 N8        30.11S
SHELBYVILLE    SUNNY     71  57  61 NE9       30.10S
ZIONSVILLE +   SUNNY     69  55  60 NE9       30.13S

$$

INZ033-034-041-042-049-050-058-059-241600-
EAST CENTRAL INDIANA

CITY           SKY/WX    TMP DP  RH WIND       PRES   REMARKS
MUNCIE         SUNNY     68  54  60 NE9       30.11F

$$

INZ060-061-067>069-081>083-085>088-241600-
SOUTHWEST INDIANA

CITY           SKY/WX    TMP DP  RH WIND       PRES   REMARKS
EVANSVILLE     SUNNY     72  59  63 NE7       30.08S
HUNTINGBURG *+ SUNNY     72  57  60 NE13G18   30.08S
WASHINGTON +   SUNNY     71  60  70 NE9       30.10R

$$

INZ062-063-066-070>080-084-089>092-241600-
SOUTH CENTRAL AND SOUTHEAST INDIANA

CITY           SKY/WX    TMP DP  RH WIND       PRES   REMARKS
BLOOMINGTON    SUNNY     71  57  61 NE13      30.11R

$$




USA.gov is the U.S. government's official web portal to all federal, state and local government web resources and services.